| time (UTC) | temp F | wind direction | speed MPH | gust MPH | rain 1hr in | rain 24hr in | rain mn in | humidity % | barometer mb |
| 20260906083222 | 79 | 139 | 3.0 | 7.0 | 0.00 | 0.00 | 0.00 | 82 | 1015.2 |
| 20260906083039 | 78 | 134 | 3.0 | 7.0 | 0.00 | 0.00 | 0.00 | 82 | 1012.3 |
| 20260906082732 | 79 | 132 | 3.0 | 6.0 | 0.00 | 0.00 | 0.00 | 82 | 1015.2 |
| 20260906082305 | 79 | 145 | 3.0 | 7.0 | 0.00 | 0.00 | 0.00 | 82 | 1015.1 |
| 20260906081724 | 79 | 118 | 3.0 | 7.0 | 0.00 | 0.00 | 0.00 | 82 | 1015.1 |
| 20260906081519 | 79 | 131 | 3.0 | 7.0 | 0.00 | 0.00 | 0.00 | 82 | 1012.3 |
| 20260906081233 | 79 | 122 | 4.0 | 8.0 | 0.00 | 0.00 | 0.00 | 82 | 1015.2 |
| 20260906080742 | 79 | 138 | 4.0 | 8.0 | 0.00 | 0.00 | 0.00 | 82 | 1015.2 |
| 20260906080225 | 79 | 148 | 5.0 | 9.0 | 0.00 | 0.00 | 0.00 | 82 | 1015.2 |
| 20260906080028 | 79 | 142 | 5.0 | 9.0 | 0.00 | 0.00 | 0.00 | 82 | 1012.1 |
| 20260906075736 | 79 | 134 | 6.0 | 10.0 | 0.00 | 0.00 | 0.00 | 82 | 1015.0 |
| 20260906075248 | 79 | 145 | 6.0 | 10.0 | 0.00 | 0.00 | 0.00 | 82 | 1014.9 |
| 20260906074732 | 80 | 147 | 7.0 | 12.0 | 0.00 | 0.00 | 0.00 | 81 | 1014.9 |
| 20260906074518 | 79 | 139 | 6.0 | 12.0 | 0.00 | 0.00 | 0.00 | 81 | 1012.1 |
| 20260906074223 | 80 | 141 | 9.0 | 12.0 | 0.00 | 0.00 | 0.00 | 81 | 1014.9 |
| 20260906073730 | 80 | 140 | 7.0 | 12.0 | 0.00 | 0.00 | 0.00 | 81 | 1015.0 |
| 20260906073241 | 80 | 114 | 6.0 | 11.0 | 0.00 | 0.00 | 0.00 | 81 | 1015.0 |
| 20260906073054 | 79 | 136 | 5.0 | 11.0 | 0.00 | 0.00 | 0.00 | 81 | 1012.2 |
| 20260906072722 | 80 | 132 | 7.0 | 11.0 | 0.00 | 0.00 | 0.00 | 81 | 1015.1 |
| 20260906072233 | 80 | 130 | 7.0 | 10.0 | 0.00 | 0.00 | 0.00 | 81 | 1015.1 |
| 20260906071745 | 80 | 119 | 5.0 | 11.0 | 0.00 | 0.00 | 0.00 | 81 | 1015.1 |
| 20260906071559 | 80 | 140 | 5.0 | 11.0 | 0.00 | 0.00 | 0.00 | 81 | 1012.2 |
| 20260906071230 | 80 | 132 | 8.0 | 11.0 | 0.00 | 0.00 | 0.00 | 81 | 1015.2 |
| 20260906070739 | 80 | 148 | 7.0 | 11.0 | 0.00 | 0.00 | 0.00 | 81 | 1015.2 |
| 20260906070249 | 80 | 145 | 6.0 | 12.0 | 0.00 | 0.00 | 0.00 | 80 | 1015.2 |
| 20260906070053 | 80 | 129 | 6.0 | 14.0 | 0.00 | 0.00 | 0.00 | 80 | 1012.3 |
| 20260906065727 | 80 | 136 | 8.0 | 14.0 | 0.00 | 0.00 | 0.00 | 80 | 1015.2 |
| 20260906065238 | 80 | 126 | 9.0 | 14.0 | 0.00 | 0.00 | 0.00 | 80 | 1015.3 |
| 20260906064722 | 80 | 139 | 7.0 | 12.0 | 0.00 | 0.00 | 0.00 | 80 | 1015.3 |
| 20260906064557 | 80 | 117 | 6.0 | 12.0 | 0.00 | 0.00 | 0.00 | 80 | 1012.5 |
| 20260906064235 | 80 | 105 | 7.0 | 12.0 | 0.00 | 0.00 | 0.00 | 80 | 1015.4 |
| 20260906063745 | 80 | 136 | 7.0 | 12.0 | 0.00 | 0.00 | 0.00 | 80 | 1015.5 |
| 20260906063228 | 81 | 154 | 7.0 | 11.0 | 0.00 | 0.00 | 0.00 | 80 | 1015.5 |
| 20260906063008 | 80 | 121 | 6.0 | 11.0 | 0.00 | 0.00 | 0.00 | 80 | 1012.6 |
| 20260906062738 | 81 | 134 | 8.0 | 11.0 | 0.00 | 0.00 | 0.00 | 80 | 1015.5 |
| 20260906062249 | 81 | 119 | 6.0 | 10.0 | 0.00 | 0.00 | 0.00 | 80 | 1015.5 |
| 20260906061727 | 81 | 128 | 6.0 | 10.0 | 0.00 | 0.00 | 0.00 | 80 | 1015.5 |
| 20260906061507 | 80 | 157 | 5.0 | 10.0 | 0.00 | 0.00 | 0.00 | 80 | 1012.6 |
| 20260906061259 | 81 | 139 | 6.0 | 10.0 | 0.00 | 0.00 | 0.00 | 79 | 1015.5 |
| 20260906060749 | 81 | 119 | 6.0 | 11.0 | 0.00 | 0.00 | 0.00 | 79 | 1015.4 |
| 20260906060230 | 81 | 121 | 7.0 | 11.0 | 0.00 | 0.00 | 0.00 | 79 | 1015.5 |
| 20260906060042 | 81 | 128 | 7.0 | 13.0 | 0.00 | 0.00 | 0.00 | 79 | 1012.6 |
| 20260906055739 | 81 | 138 | 7.0 | 13.0 | 0.00 | 0.00 | 0.00 | 79 | 1015.4 |
| 20260906055222 | 81 | 107 | 6.0 | 13.0 | 0.00 | 0.00 | 0.00 | 79 | 1015.4 |
| 20260906054753 | 81 | 128 | 8.0 | 13.0 | 0.00 | 0.00 | 0.00 | 79 | 1015.5 |
| 20260906054526 | 81 | 123 | 7.0 | 13.0 | 0.00 | 0.00 | 0.00 | 79 | 1012.5 |
| 20260906054242 | 81 | 88 | 9.0 | 13.0 | 0.00 | 0.00 | 0.00 | 79 | 1015.3 |
| 20260906053724 | 81 | 123 | 9.0 | 13.0 | 0.00 | 0.00 | 0.00 | 79 | 1015.4 |
| 20260906053234 | 82 | 119 | 9.0 | 13.0 | 0.00 | 0.00 | 0.00 | 79 | 1015.4 |
| 20260906053031 | 81 | 110 | 8.0 | 13.0 | 0.00 | 0.00 | 0.00 | 79 | 1012.5 |
| 20260906052747 | 82 | 126 | 8.0 | 11.0 | 0.00 | 0.00 | 0.00 | 79 | 1015.4 |
| 20260906052231 | 82 | 103 | 8.0 | 11.0 | 0.00 | 0.00 | 0.00 | 78 | 1015.5 |
| 20260906051744 | 82 | 105 | 7.0 | 10.0 | 0.00 | 0.00 | 0.00 | 78 | 1015.5 |
| 20260906051525 | 82 | 105 | 8.0 | 10.0 | 0.00 | 0.00 | 0.00 | 78 | 1012.6 |
| 20260906051227 | 82 | 109 | 8.0 | 10.0 | 0.00 | 0.00 | 0.00 | 78 | 1015.5 |
| 20260906050739 | 82 | 121 | 7.0 | 10.0 | 0.00 | 0.00 | 0.00 | 78 | 1015.5 |
| 20260906050309 | 82 | 111 | 7.0 | 10.0 | 0.00 | 0.00 | 0.00 | 78 | 1015.5 |
| 20260906050051 | 82 | 115 | 6.0 | 10.0 | 0.00 | 0.00 | 0.00 | 78 | 1012.6 |
| 20260906045730 | 82 | 115 | 6.0 | 10.0 | 0.00 | 0.00 | 0.00 | 77 | 1015.5 |
| 20260906045242 | 83 | 108 | 7.0 | 11.0 | 0.00 | 0.00 | 0.00 | 77 | 1015.5 |
| 20260906044727 | 83 | 111 | 6.0 | 11.0 | 0.00 | 0.00 | 0.00 | 77 | 1015.5 |
| 20260906044557 | 82 | 80 | 7.0 | 11.0 | 0.00 | 0.00 | 0.00 | 77 | 1012.5 |
| 20260906044238 | 83 | 88 | 8.0 | 11.0 | 0.00 | 0.00 | 0.00 | 77 | 1015.4 |
| 20260906043809 | 83 | 96 | 8.0 | 12.0 | 0.00 | 0.00 | 0.00 | 77 | 1015.4 |
| 20260906043230 | 83 | 95 | 8.0 | 11.0 | 0.00 | 0.00 | 0.00 | 77 | 1015.4 |
| 20260906043039 | 83 | 99 | 8.0 | 11.0 | 0.00 | 0.00 | 0.00 | 76 | 1012.6 |
| 20260906042737 | 83 | 101 | 8.0 | 10.0 | 0.00 | 0.00 | 0.00 | 76 | 1015.5 |
| 20260906042221 | 83 | 97 | 6.0 | 10.0 | 0.00 | 0.00 | 0.00 | 76 | 1015.5 |
| 20260906041735 | 84 | 115 | 7.0 | 10.0 | 0.00 | 0.00 | 0.00 | 76 | 1015.5 |
| 20260906041554 | 83 | 116 | 7.0 | 10.0 | 0.00 | 0.00 | 0.00 | 76 | 1012.5 |
| 20260906041248 | 84 | 103 | 7.0 | 11.0 | 0.00 | 0.00 | 0.00 | 76 | 1015.5 |
| 20260906040759 | 84 | 113 | 7.0 | 11.0 | 0.00 | 0.00 | 0.00 | 75 | 1015.5 |
| 20260906040250 | 84 | 104 | 9.0 | 11.0 | 0.00 | 0.00 | 0.00 | 75 | 1015.5 |
| 20260906040022 | 83 | 91 | 7.0 | 12.0 | 0.00 | 0.00 | 0.00 | 75 | 1012.5 |
| 20260906035731 | 84 | 85 | 8.0 | 12.0 | 0.00 | 0.00 | 0.00 | 75 | 1015.5 |
| 20260906035240 | 84 | 95 | 8.0 | 12.0 | 0.00 | 0.00 | 0.00 | 75 | 1015.4 |
| 20260906034725 | 84 | 89 | 8.0 | 12.0 | 0.00 | 0.00 | 0.00 | 75 | 1015.5 |
| 20260906034532 | 84 | 110 | 7.0 | 11.0 | 0.00 | 0.00 | 0.00 | 75 | 1012.5 |
| 20260906034238 | 84 | 99 | 8.0 | 11.0 | 0.00 | 0.00 | 0.00 | 75 | 1015.4 |
| 20260906033752 | 84 | 101 | 8.0 | 12.0 | 0.00 | 0.00 | 0.00 | 75 | 1015.4 |
| 20260906033244 | 84 | 93 | 8.0 | 12.0 | 0.00 | 0.00 | 0.00 | 75 | 1015.3 |
| 20260906033055 | 84 | 82 | 7.0 | 12.0 | 0.00 | 0.00 | 0.00 | 75 | 1012.4 |
| 20260906032727 | 85 | 94 | 7.0 | 10.0 | 0.00 | 0.00 | 0.00 | 75 | 1015.3 |
| 20260906032240 | 85 | 98 | 7.0 | 10.0 | 0.00 | 0.00 | 0.00 | 75 | 1015.3 |
| 20260906031724 | 85 | 69 | 7.0 | 13.0 | 0.00 | 0.00 | 0.00 | 74 | 1015.2 |
| 20260906031505 | 84 | 111 | 8.0 | 13.0 | 0.00 | 0.00 | 0.00 | 74 | 1012.3 |
| 20260906031236 | 85 | 88 | 8.0 | 12.0 | 0.00 | 0.00 | 0.00 | 74 | 1015.1 |
| 20260906030745 | 85 | 90 | 7.0 | 11.0 | 0.00 | 0.00 | 0.00 | 74 | 1015.0 |
| 20260906030229 | 85 | 93 | 8.0 | 13.0 | 0.00 | 0.00 | 0.00 | 74 | 1014.8 |
| 20260906030015 | 85 | 107 | 8.0 | 13.0 | 0.00 | 0.00 | 0.00 | 74 | 1011.8 |
| 20260906025742 | 85 | 100 | 9.0 | 15.0 | 0.00 | 0.00 | 0.00 | 74 | 1014.7 |
| 20260906025227 | 85 | 117 | 7.0 | 15.0 | 0.00 | 0.00 | 0.00 | 74 | 1014.7 |
| 20260906024740 | 85 | 80 | 8.0 | 11.0 | 0.00 | 0.00 | 0.00 | 74 | 1014.7 |
| 20260906024522 | 85 | 105 | 7.0 | 12.0 | 0.00 | 0.00 | 0.00 | 74 | 1011.7 |
| 20260906024255 | 85 | 74 | 8.0 | 12.0 | 0.00 | 0.00 | 0.00 | 74 | 1014.7 |
| 20260906023741 | 86 | 90 | 8.0 | 12.0 | 0.00 | 0.00 | 0.00 | 74 | 1014.5 |
| 20260906023226 | 86 | 94 | 7.0 | 11.0 | 0.00 | 0.00 | 0.00 | 74 | 1014.6 |
| 20260906023006 | 85 | 92 | 8.0 | 11.0 | 0.00 | 0.00 | 0.00 | 74 | 1011.6 |
| 20260906022738 | 86 | 79 | 7.0 | 11.0 | 0.00 | 0.00 | 0.00 | 74 | 1014.6 |
| 20260906022222 | 86 | 78 | 6.0 | 10.0 | 0.00 | 0.00 | 0.00 | 73 | 1014.6 |
| 20260906021735 | 86 | 57 | 7.0 | 12.0 | 0.00 | 0.00 | 0.00 | 73 | 1014.4 |
| 20260906021510 | 86 | 82 | 8.0 | 12.0 | 0.00 | 0.00 | 0.00 | 73 | 1011.4 |
| 20260906021248 | 86 | 77 | 8.0 | 12.0 | 0.00 | 0.00 | 0.00 | 73 | 1014.4 |
| 20260906020728 | 86 | 71 | 7.0 | 11.0 | 0.00 | 0.00 | 0.00 | 72 | 1014.2 |
| 20260906020239 | 87 | 97 | 7.0 | 12.0 | 0.00 | 0.00 | 0.00 | 72 | 1014.0 |
| 20260906020015 | 86 | 80 | 7.0 | 12.0 | 0.00 | 0.00 | 0.00 | 72 | 1011.0 |
| 20260906015747 | 87 | 105 | 7.0 | 12.0 | 0.00 | 0.00 | 0.00 | 72 | 1013.9 |
| 20260906015238 | 87 | 88 | 6.0 | 12.0 | 0.00 | 0.00 | 0.00 | 72 | 1013.9 |
| 20260906014721 | 87 | 93 | 8.0 | 12.0 | 0.00 | 0.00 | 0.00 | 71 | 1014.0 |
| 20260906014609 | 87 | 92 | 7.0 | 12.0 | 0.00 | 0.00 | 0.00 | 71 | 1010.8 |
| 20260906014256 | 87 | 91 | 8.0 | 12.0 | 0.00 | 0.00 | 0.00 | 71 | 1013.9 |
| 20260906013747 | 87 | 76 | 7.0 | 11.0 | 0.00 | 0.00 | 0.00 | 71 | 1013.8 |
| 20260906013226 | 88 | 96 | 7.0 | 11.0 | 0.00 | 0.00 | 0.00 | 71 | 1013.8 |
| 20260906013043 | 87 | 82 | 6.0 | 11.0 | 0.00 | 0.00 | 0.00 | 71 | 1010.7 |
| 20260906012737 | 88 | 96 | 5.0 | 11.0 | 0.00 | 0.00 | 0.00 | 71 | 1013.7 |
| 20260906012245 | 88 | 82 | 6.0 | 11.0 | 0.00 | 0.00 | 0.00 | 70 | 1013.7 |
| 20260906011729 | 88 | 67 | 5.0 | 10.0 | 0.00 | 0.00 | 0.00 | 70 | 1013.7 |
| 20260906011542 | 88 | 90 | 6.0 | 10.0 | 0.00 | 0.00 | 0.00 | 70 | 1010.6 |
| 20260906011224 | 89 | 91 | 6.0 | 9.0 | 0.00 | 0.00 | 0.00 | 70 | 1013.5 |
| 20260906010735 | 89 | 64 | 5.0 | 10.0 | 0.00 | 0.00 | 0.00 | 70 | 1013.5 |
| 20260906010248 | 89 | 80 | 6.0 | 10.0 | 0.00 | 0.00 | 0.00 | 69 | 1013.4 |
| 20260906010024 | 89 | 80 | 6.0 | 9.0 | 0.00 | 0.00 | 0.00 | 69 | 1010.4 |
| 20260906005741 | 90 | 68 | 5.0 | 9.0 | 0.00 | 0.00 | 0.00 | 68 | 1013.4 |
| 20260906005256 | 90 | 78 | 6.0 | 10.0 | 0.00 | 0.00 | 0.00 | 67 | 1013.4 |
| 20260906004745 | 90 | 68 | 6.0 | 10.0 | 0.00 | 0.00 | 0.00 | 67 | 1013.4 |
| 20260906004607 | 90 | 97 | 7.0 | 11.0 | 0.00 | 0.00 | 0.00 | 67 | 1010.4 |
| 20260906004509 | 90 | 87 | 7.0 | 11.0 | 0.00 | 0.00 | 0.00 | 67 | 1010.3 |
| 20260906004226 | 90 | 90 | 7.0 | 11.0 | 0.00 | 0.00 | 0.00 | 66 | 1013.3 |
| 20260906003758 | 91 | 112 | 8.0 | 12.0 | 0.00 | 0.00 | 0.00 | 66 | 1013.3 |
| 20260906003221 | 91 | 126 | 8.0 | 12.0 | 0.00 | 0.00 | 0.00 | 65 | 1013.4 |
| 20260906003049 | 91 | 121 | 8.0 | 11.0 | 0.00 | 0.00 | 0.00 | 65 | 1010.3 |
| 20260906002755 | 91 | 91 | 7.0 | 11.0 | 0.00 | 0.00 | 0.00 | 65 | 1013.3 |
| 20260906002228 | 92 | 126 | 6.0 | 12.0 | 0.00 | 0.00 | 0.00 | 64 | 1013.2 |
| 20260906001742 | 92 | 116 | 6.0 | 12.0 | 0.00 | 0.00 | 0.00 | 64 | 1013.2 |
| 20260906001520 | 92 | 118 | 8.0 | 12.0 | 0.00 | 0.00 | 0.00 | 64 | 1010.2 |
| 20260906001227 | 92 | 132 | 8.0 | 11.0 | 0.00 | 0.00 | 0.00 | 64 | 1013.3 |
| 20260906000736 | 93 | 107 | 8.0 | 11.0 | 0.00 | 0.00 | 0.00 | 63 | 1013.3 |
| 20260906000248 | 93 | 113 | 8.0 | 10.0 | 0.00 | 0.00 | 0.00 | 63 | 1013.2 |
| 20260906000007 | 92 | 109 | 7.0 | 10.0 | 0.00 | 0.00 | 0.00 | 63 | 1010.3 |
| 20260905235738 | 93 | 119 | 7.0 | 10.0 | 0.00 | 0.00 | 0.00 | 63 | 1013.3 |
| 20260905235224 | 93 | 133 | 5.0 | 12.0 | 0.00 | 0.00 | 0.00 | 62 | 1013.3 |
| 20260905234737 | 93 | 117 | 6.0 | 12.0 | 0.00 | 0.00 | 0.00 | 62 | 1013.3 |
| 20260905234508 | 93 | 130 | 8.0 | 12.0 | 0.00 | 0.00 | 0.00 | 61 | 1010.3 |
| 20260905234310 | 93 | 111 | 6.0 | 12.0 | 0.00 | 0.00 | 0.00 | 62 | 1013.3 |
| 20260905233733 | 94 | 105 | 7.0 | 12.0 | 0.00 | 0.00 | 0.00 | 62 | 1013.3 |
| 20260905233242 | 94 | 149 | 8.0 | 15.0 | 0.00 | 0.00 | 0.00 | 61 | 1013.2 |
| 20260905233049 | 93 | 99 | 7.0 | 15.0 | 0.00 | 0.00 | 0.00 | 60 | 1010.2 |
| 20260905232727 | 94 | 135 | 10.0 | 15.0 | 0.00 | 0.00 | 0.00 | 60 | 1013.1 |
| 20260905232240 | 94 | 104 | 8.0 | 15.0 | 0.00 | 0.00 | 0.00 | 61 | 1013.2 |
| 20260905231723 | 94 | 134 | 9.0 | 14.0 | 0.00 | 0.00 | 0.00 | 61 | 1013.2 |
| 20260905231556 | 94 | 96 | 9.0 | 14.0 | 0.00 | 0.00 | 0.00 | 60 | 1010.1 |
| 20260905231238 | 94 | 136 | 7.0 | 15.0 | 0.00 | 0.00 | 0.00 | 61 | 1013.2 |
| 20260905230722 | 94 | 132 | 9.0 | 15.0 | 0.00 | 0.00 | 0.00 | 59 | 1013.1 |
| 20260905230237 | 95 | 82 | 10.0 | 15.0 | 0.00 | 0.00 | 0.00 | 59 | 1013.1 |
| 20260905230014 | 94 | 97 | 10.0 | 14.0 | 0.00 | 0.00 | 0.00 | 59 | 1010.1 |
| 20260905225747 | 95 | 130 | 10.0 | 16.0 | 0.00 | 0.00 | 0.00 | 59 | 1013.0 |
| 20260905225230 | 95 | 138 | 10.0 | 16.0 | 0.00 | 0.00 | 0.00 | 59 | 1013.0 |
| 20260905224739 | 95 | 130 | 10.0 | 14.0 | 0.00 | 0.00 | 0.00 | 58 | 1013.0 |
| 20260905224523 | 94 | 147 | 9.0 | 14.0 | 0.00 | 0.00 | 0.00 | 59 | 1009.9 |
| 20260905224224 | 95 | 111 | 10.0 | 16.0 | 0.00 | 0.00 | 0.00 | 58 | 1012.9 |
| 20260905223735 | 95 | 137 | 10.0 | 16.0 | 0.00 | 0.00 | 0.00 | 58 | 1012.9 |
| 20260905223246 | 95 | 155 | 9.0 | 15.0 | 0.00 | 0.00 | 0.00 | 58 | 1012.9 |
| 20260905223058 | 94 | 138 | 9.0 | 15.0 | 0.00 | 0.00 | 0.00 | 59 | 1009.8 |
| 20260905222738 | 95 | 123 | 9.0 | 16.0 | 0.00 | 0.00 | 0.00 | 59 | 1012.8 |
| 20260905222247 | 95 | 114 | 12.0 | 18.0 | 0.00 | 0.00 | 0.00 | 58 | 1012.8 |
| 20260905221754 | 95 | 134 | 14.0 | 18.0 | 0.00 | 0.00 | 0.00 | 58 | 1012.7 |
| 20260905221516 | 94 | 139 | 10.0 | 17.0 | 0.00 | 0.00 | 0.00 | 59 | 1009.7 |
| 20260905221247 | 95 | 88 | 9.0 | 19.0 | 0.00 | 0.00 | 0.00 | 58 | 1012.8 |
| 20260905220731 | 95 | 134 | 10.0 | 19.0 | 0.00 | 0.00 | 0.00 | 57 | 1012.8 |
| 20260905220244 | 95 | 111 | 10.0 | 16.0 | 0.00 | 0.00 | 0.00 | 58 | 1012.8 |
| 20260905220050 | 95 | 137 | 10.0 | 16.0 | 0.00 | 0.00 | 0.00 | 58 | 1009.9 |
| 20260905215757 | 95 | 109 | 12.0 | 16.0 | 0.00 | 0.00 | 0.00 | 57 | 1012.9 |
| 20260905215221 | 95 | 113 | 11.0 | 16.0 | 0.00 | 0.00 | 0.00 | 57 | 1012.9 |
| 20260905214731 | 95 | 143 | 10.0 | 15.0 | 0.00 | 0.00 | 0.00 | 58 | 1012.9 |
| 20260905214531 | 94 | 127 | 10.0 | 15.0 | 0.00 | 0.00 | 0.00 | 57 | 1009.9 |
| 20260905214300 | 95 | 143 | 10.0 | 15.0 | 0.00 | 0.00 | 0.00 | 58 | 1013.0 |
| 20260905213810 | 94 | 133 | 9.0 | 15.0 | 0.00 | 0.00 | 0.00 | 57 | 1013.0 |
| 20260905213233 | 94 | 117 | 10.0 | 16.0 | 0.00 | 0.00 | 0.00 | 57 | 1013.2 |
| 20260905213050 | 94 | 92 | 10.0 | 16.0 | 0.00 | 0.00 | 0.00 | 57 | 1010.3 |
| 20260905212806 | 94 | 105 | 12.0 | 17.0 | 0.00 | 0.00 | 0.00 | 56 | 1013.3 |
| 20260905212227 | 94 | 92 | 8.0 | 17.0 | 0.00 | 0.00 | 0.00 | 57 | 1013.4 |
| 20260905211759 | 94 | 77 | 10.0 | 16.0 | 0.00 | 0.00 | 0.00 | 56 | 1013.5 |
| 20260905211503 | 93 | 119 | 8.0 | 16.0 | 0.00 | 0.00 | 0.00 | 57 | 1010.6 |
| 20260905211247 | 94 | 136 | 10.0 | 16.0 | 0.00 | 0.00 | 0.00 | 57 | 1013.6 |
| 20260905210729 | 94 | 127 | 11.0 | 15.0 | 0.00 | 0.00 | 0.00 | 57 | 1013.6 |
| 20260905210301 | 94 | 78 | 9.0 | 16.0 | 0.00 | 0.00 | 0.00 | 56 | 1013.7 |
| 20260905210043 | 93 | 69 | 8.0 | 16.0 | 0.00 | 0.00 | 0.00 | 56 | 1010.7 |
| 20260905205751 | 94 | 123 | 10.0 | 16.0 | 0.00 | 0.00 | 0.00 | 56 | 1013.9 |
| 20260905205242 | 94 | 104 | 11.0 | 16.0 | 0.00 | 0.00 | 0.00 | 56 | 1014.0 |
| 20260905204733 | 94 | 140 | 9.0 | 17.0 | 0.00 | 0.00 | 0.00 | 56 | 1014.0 |
| 20260905204507 | 93 | 87 | 11.0 | 18.0 | 0.00 | 0.00 | 0.00 | 55 | 1011.0 |
| 20260905204242 | 94 | 101 | 11.0 | 18.0 | 0.00 | 0.00 | 0.00 | 55 | 1014.2 |
| 20260905203724 | 94 | 63 | 12.0 | 18.0 | 0.00 | 0.00 | 0.00 | 56 | 1014.2 |
| 20260905203235 | 94 | 87 | 12.0 | 18.0 | 0.00 | 0.00 | 0.00 | 53 | 1014.4 |
| 20260905203010 | 93 | 101 | 10.0 | 18.0 | 0.00 | 0.00 | 0.00 | 54 | 1011.4 |
| 20260905202746 | 93 | 99 | 11.0 | 17.0 | 0.00 | 0.00 | 0.00 | 55 | 1014.4 |
| 20260905202230 | 93 | 89 | 12.0 | 19.0 | 0.00 | 0.00 | 0.00 | 55 | 1014.7 |
| 20260905201742 | 94 | 92 | 14.0 | 19.0 | 0.00 | 0.00 | 0.00 | 53 | 1014.9 |
| 20260905201554 | 93 | 90 | 13.0 | 19.0 | 0.00 | 0.00 | 0.00 | 54 | 1011.8 |
| 20260905201233 | 94 | 81 | 12.0 | 17.0 | 0.00 | 0.00 | 0.00 | 56 | 1015.0 |
| 20260905200743 | 94 | 53 | 8.0 | 18.0 | 0.00 | 0.00 | 0.00 | 55 | 1015.2 |
| 20260905200222 | 94 | 50 | 12.0 | 17.0 | 0.00 | 0.00 | 0.00 | 57 | 1015.2 |
| 20260905200105 | 94 | 50 | 11.0 | 17.0 | 0.00 | 0.00 | 0.00 | 57 | 1012.1 |
| 20260905195734 | 94 | 59 | 12.0 | 18.0 | 0.00 | 0.00 | 0.00 | 58 | 1015.2 |
| 20260905195247 | 94 | 81 | 9.0 | 18.0 | 0.00 | 0.00 | 0.00 | 58 | 1015.2 |
| 20260905194732 | 93 | 55 | 10.0 | 20.0 | 0.00 | 0.00 | 0.00 | 58 | 1015.2 |
| 20260905194507 | 93 | 87 | 12.0 | 20.0 | 0.00 | 0.00 | 0.00 | 58 | 1012.1 |
| 20260905194245 | 93 | 108 | 14.0 | 20.0 | 0.00 | 0.00 | 0.00 | 58 | 1015.1 |
| 20260905193735 | 93 | 98 | 10.0 | 17.0 | 0.00 | 0.00 | 0.00 | 61 | 1015.3 |
| 20260905193307 | 93 | 112 | 11.0 | 18.0 | 0.00 | 0.00 | 0.00 | 61 | 1015.4 |
| 20260905193029 | 92 | 76 | 9.0 | 18.0 | 0.00 | 0.00 | 0.00 | 61 | 1012.2 |
| 20260905192726 | 93 | 82 | 13.0 | 20.0 | 0.00 | 0.00 | 0.00 | 60 | 1015.4 |
| 20260905192257 | 93 | 88 | 12.0 | 21.0 | 0.00 | 0.00 | 0.00 | 61 | 1015.5 |
| 20260905191720 | 92 | 39 | 13.0 | 21.0 | 0.00 | 0.00 | 0.00 | 61 | 1015.5 |
| 20260905191520 | 92 | 92 | 12.0 | 21.0 | 0.00 | 0.00 | 0.00 | 62 | 1012.5 |
| 20260905191234 | 92 | 48 | 13.0 | 21.0 | 0.00 | 0.00 | 0.00 | 61 | 1015.7 |
| 20260905190744 | 92 | 108 | 15.0 | 21.0 | 0.00 | 0.00 | 0.00 | 61 | 1015.8 |
| 20260905190228 | 92 | 105 | 13.0 | 20.0 | 0.00 | 0.00 | 0.00 | 61 | 1015.9 |
| 20260905190034 | 92 | 51 | 12.0 | 21.0 | 0.00 | 0.00 | 0.00 | 61 | 1012.9 |
| 20260905185739 | 92 | 89 | 13.0 | 22.0 | 0.00 | 0.00 | 0.00 | 62 | 1016.1 |
| 20260905185223 | 92 | 39 | 14.0 | 22.0 | 0.00 | 0.00 | 0.00 | 60 | 1016.2 |
| 20260905184730 | 92 | 95 | 14.0 | 22.0 | 0.00 | 0.00 | 0.00 | 61 | 1016.4 |
| 20260905184528 | 91 | 56 | 12.0 | 20.0 | 0.00 | 0.00 | 0.00 | 62 | 1013.2 |
| 20260905184241 | 91 | 70 | 13.0 | 20.0 | 0.00 | 0.00 | 0.00 | 62 | 1016.4 |
| 20260905183723 | 91 | 75 | 15.0 | 22.0 | 0.00 | 0.00 | 0.00 | 63 | 1016.6 |
| 20260905183235 | 91 | 33 | 13.0 | 23.0 | 0.00 | 0.00 | 0.00 | 63 | 1016.7 |
| 20260905183034 | 91 | 17 | 13.0 | 23.0 | 0.00 | 0.00 | 0.00 | 63 | 1013.6 |
| 20260905182748 | 91 | 5 | 13.0 | 23.0 | 0.00 | 0.00 | 0.00 | 62 | 1016.8 |
| 20260905182230 | 91 | 27 | 16.0 | 25.0 | 0.00 | 0.00 | 0.00 | 62 | 1016.6 |
| 20260905181742 | 92 | 40 | 15.0 | 25.0 | 0.00 | 0.00 | 0.00 | 62 | 1016.7 |
| 20260905181536 | 91 | 22 | 13.0 | 25.0 | 0.00 | 0.00 | 0.00 | 61 | 1013.6 |
| 20260905181227 | 92 | 30 | 13.0 | 25.0 | 0.00 | 0.00 | 0.00 | 61 | 1016.6 |
| 20260905180733 | 92 | 44 | 11.0 | 20.0 | 0.00 | 0.00 | 0.00 | 63 | 1016.5 |
| 20260905180247 | 92 | 13 | 13.0 | 23.0 | 0.00 | 0.00 | 0.00 | 62 | 1016.4 |
| 20260905180038 | 92 | 43 | 14.0 | 23.0 | 0.00 | 0.00 | 0.00 | 62 | 1013.3 |
| 20260905175730 | 93 | 360 | 15.0 | 23.0 | 0.00 | 0.00 | 0.00 | 60 | 1016.5 |
| 20260905175241 | 93 | 38 | 13.0 | 23.0 | 0.00 | 0.00 | 0.00 | 60 | 1016.4 |
| 20260905174726 | 93 | 5 | 10.0 | 19.0 | 0.00 | 0.00 | 0.00 | 61 | 1016.4 |
| 20260905174543 | 92 | 50 | 9.0 | 19.0 | 0.00 | 0.00 | 0.00 | 61 | 1013.3 |
| 20260905174301 | 93 | 5 | 14.0 | 19.0 | 0.00 | 0.00 | 0.00 | 60 | 1016.3 |
| 20260905173722 | 93 | 28 | 9.0 | 15.0 | 0.00 | 0.00 | 0.00 | 60 | 1016.4 |
| 20260905173229 | 93 | 34 | 12.0 | 17.0 | 0.00 | 0.00 | 0.00 | 61 | 1016.4 |
| 20260905173023 | 93 | 16 | 9.0 | 17.0 | 0.00 | 0.00 | 0.00 | 61 | 1013.3 |
| 20260905172802 | 93 | 34 | 12.0 | 17.0 | 0.00 | 0.00 | 0.00 | 59 | 1016.4 |
| 20260905172225 | 93 | 55 | 10.0 | 16.0 | 0.00 | 0.00 | 0.00 | 60 | 1016.5 |
| 20260905171737 | 93 | 355 | 12.0 | 16.0 | 0.00 | 0.00 | 0.00 | 59 | 1016.4 |
| 20260905171513 | 93 | 12 | 10.0 | 16.0 | 0.00 | 0.00 | 0.00 | 57 | 1013.4 |
| 20260905171222 | 93 | 31 | 10.0 | 16.0 | 0.00 | 0.00 | 0.00 | 56 | 1016.5 |
| 20260905170733 | 93 | 11 | 10.0 | 17.0 | 0.00 | 0.00 | 0.00 | 57 | 1016.6 |
| 20260905170305 | 94 | 355 | 13.0 | 17.0 | 0.00 | 0.00 | 0.00 | 57 | 1016.5 |
| 20260905170052 | 93 | 348 | 11.0 | 17.0 | 0.00 | 0.00 | 0.00 | 57 | 1013.4 |
| 20260905165724 | 94 | 355 | 11.0 | 17.0 | 0.00 | 0.00 | 0.00 | 56 | 1016.6 |
| 20260905165237 | 94 | 346 | 12.0 | 17.0 | 0.00 | 0.00 | 0.00 | 57 | 1016.6 |
| 20260905164721 | 94 | 43 | 11.0 | 17.0 | 0.00 | 0.00 | 0.00 | 57 | 1016.5 |
| 20260905164553 | 94 | 5 | 10.0 | 14.0 | 0.00 | 0.00 | 0.00 | 58 | 1013.4 |
| 20260905164234 | 94 | 27 | 7.0 | 12.0 | 0.00 | 0.00 | 0.00 | 61 | 1016.6 |
| 20260905163743 | 94 | 32 | 9.0 | 12.0 | 0.00 | 0.00 | 0.00 | 61 | 1016.7 |
| 20260905163234 | 94 | 37 | 5.0 | 9.0 | 0.00 | 0.00 | 0.00 | 60 | 1016.5 |
| 20260905163037 | 93 | 355 | 5.0 | 10.0 | 0.00 | 0.00 | 0.00 | 57 | 1013.4 |
| 20260905162744 | 93 | 23 | 5.0 | 10.0 | 0.00 | 0.00 | 0.00 | 59 | 1016.5 |
| 20260905162227 | 93 | 27 | 4.0 | 10.0 | 0.00 | 0.00 | 0.00 | 58 | 1016.5 |
| 20260905161735 | 93 | 350 | 7.0 | 9.0 | 0.00 | 0.00 | 0.00 | 58 | 1016.5 |
| 20260905161546 | 93 | 355 | 6.0 | 9.0 | 0.00 | 0.00 | 0.00 | 60 | 1013.5 |
| 20260905161248 | 93 | 19 | 6.0 | 8.0 | 0.00 | 0.00 | 0.00 | 60 | 1016.4 |
| 20260905160730 | 93 | 360 | 4.0 | 8.0 | 0.00 | 0.00 | 0.00 | 60 | 1016.3 |
| 20260905160242 | 93 | 360 | 5.0 | 6.0 | 0.00 | 0.00 | 0.00 | 60 | 1016.3 |
| 20260905160049 | 92 | 10 | 4.0 | 6.0 | 0.00 | 0.00 | 0.00 | 61 | 1013.2 |
| 20260905155727 | 93 | 351 | 4.0 | 7.0 | 0.00 | 0.00 | 0.00 | 60 | 1016.2 |
| 20260905155238 | 93 | 11 | 2.0 | 5.0 | 0.00 | 0.00 | 0.00 | 61 | 1016.1 |
| 20260905154722 | 93 | 19 | 3.0 | 6.0 | 0.00 | 0.00 | 0.00 | 60 | 1016.1 |
| 20260905154555 | 92 | 24 | 3.0 | 6.0 | 0.00 | 0.00 | 0.00 | 59 | 1013.1 |
| 20260905154235 | 92 | 355 | 4.0 | 6.0 | 0.00 | 0.00 | 0.00 | 60 | 1016.1 |
| 20260905153742 | 92 | 155 | 3.0 | 5.0 | 0.00 | 0.00 | 0.00 | 60 | 1016.3 |
| 20260905153225 | 92 | 155 | 2.0 | 3.0 | 0.00 | 0.00 | 0.00 | 57 | 1016.1 |
| 20260905153055 | 92 | 155 | 0.0 | 5.0 | 0.00 | 0.00 | 0.00 | 57 | 1013.0 |
| 20260905152738 | 92 | 155 | 1.0 | 6.0 | 0.00 | 0.00 | 0.00 | 59 | 1016.0 |
| 20260905152221 | 92 | 155 | 3.0 | 6.0 | 0.00 | 0.00 | 0.00 | 60 | 1016.0 |
| 20260905151732 | 92 | 155 | 2.0 | 5.0 | 0.00 | 0.00 | 0.00 | 61 | 1016.0 |
| 20260905151555 | 91 | 155 | 2.0 | 5.0 | 0.00 | 0.00 | 0.00 | 61 | 1012.9 |
| 20260905151245 | 91 | 155 | 2.0 | 5.0 | 0.00 | 0.00 | 0.00 | 60 | 1016.1 |
| 20260905150755 | 91 | 155 | 1.0 | 3.0 | 0.00 | 0.00 | 0.00 | 61 | 1016.1 |
| 20260905150243 | 91 | 155 | 1.0 | 3.0 | 0.00 | 0.00 | 0.00 | 63 | 1016.0 |
| 20260905145736 | 90 | 155 | 1.0 | 3.0 | 0.00 | 0.00 | 0.00 | 61 | 1015.9 |
| 20260905145246 | 90 | 155 | 1.0 | 5.0 | 0.00 | 0.00 | 0.00 | 60 | 1015.6 |
| 20260905144728 | 90 | 155 | 2.0 | 5.0 | 0.00 | 0.00 | 0.00 | 62 | 1015.5 |
| 20260905144557 | 89 | 155 | 3.0 | 7.0 | 0.00 | 0.00 | 0.00 | 61 | 1012.4 |
| 20260905144242 | 89 | 139 | 2.0 | 7.0 | 0.00 | 0.00 | 0.00 | 64 | 1015.4 |
| 20260905143751 | 89 | 153 | 4.0 | 8.0 | 0.00 | 0.00 | 0.00 | 65 | 1015.4 |
| 20260905143233 | 88 | 134 | 3.0 | 8.0 | 0.00 | 0.00 | 0.00 | 66 | 1015.3 |
| 20260905143003 | 87 | 134 | 5.0 | 8.0 | 0.00 | 0.00 | 0.00 | 65 | 1012.2 |
| 20260905142741 | 88 | 148 | 4.0 | 10.0 | 0.00 | 0.00 | 0.00 | 66 | 1015.1 |
| 20260905142223 | 87 | 169 | 5.0 | 10.0 | 0.00 | 0.00 | 0.00 | 66 | 1015.0 |
| 20260905141734 | 87 | 145 | 5.0 | 9.0 | 0.00 | 0.00 | 0.00 | 66 | 1015.0 |
| 20260905141509 | 86 | 157 | 5.0 | 9.0 | 0.00 | 0.00 | 0.00 | 67 | 1012.1 |
| 20260905141307 | 86 | 149 | 5.0 | 9.0 | 0.00 | 0.00 | 0.00 | 68 | 1015.0 |
| 20260905140726 | 86 | 134 | 5.0 | 8.0 | 0.00 | 0.00 | 0.00 | 68 | 1015.0 |
| 20260905140236 | 85 | 112 | 5.0 | 8.0 | 0.00 | 0.00 | 0.00 | 70 | 1015.1 |
| 20260905140038 | 84 | 146 | 3.0 | 5.0 | 0.00 | 0.00 | 0.00 | 71 | 1012.2 |
| 20260905135748 | 85 | 146 | 3.0 | 4.0 | 0.00 | 0.00 | 0.00 | 71 | 1015.2 |
| 20260905135232 | 84 | 146 | 3.0 | 5.0 | 0.00 | 0.00 | 0.00 | 72 | 1015.3 |
| 20260905134739 | 83 | 146 | 3.0 | 5.0 | 0.00 | 0.00 | 0.00 | 73 | 1015.3 |
| 20260905134540 | 82 | 146 | 3.0 | 5.0 | 0.00 | 0.00 | 0.00 | 73 | 1012.3 |
| 20260905134251 | 82 | 146 | 3.0 | 4.0 | 0.00 | 0.00 | 0.00 | 74 | 1015.2 |
| 20260905133734 | 82 | 146 | 2.0 | 4.0 | 0.00 | 0.00 | 0.00 | 77 | 1015.2 |
| 20260905133244 | 81 | 146 | 2.0 | 4.0 | 0.00 | 0.00 | 0.00 | 78 | 1015.1 |
| 20260905133036 | 80 | 146 | 2.0 | 4.0 | 0.00 | 0.00 | 0.00 | 78 | 1012.1 |
| 20260905132726 | 80 | 146 | 3.0 | 4.0 | 0.00 | 0.00 | 0.00 | 78 | 1015.0 |
| 20260905132237 | 80 | 146 | 2.0 | 5.0 | 0.00 | 0.00 | 0.00 | 80 | 1014.8 |
| 20260905131723 | 79 | 146 | 3.0 | 5.0 | 0.00 | 0.00 | 0.00 | 80 | 1014.7 |
| 20260905131547 | 79 | 146 | 3.0 | 5.0 | 0.00 | 0.00 | 0.00 | 80 | 1011.9 |
| 20260905131236 | 79 | 146 | 3.0 | 5.0 | 0.00 | 0.00 | 0.00 | 80 | 1014.6 |
| 20260905130741 | 78 | 146 | 3.0 | 5.0 | 0.00 | 0.00 | 0.00 | 81 | 1014.7 |
| 20260905130225 | 78 | 146 | 3.0 | 4.0 | 0.00 | 0.00 | 0.00 | 81 | 1014.7 |
| 20260905130042 | 77 | 146 | 2.0 | 4.0 | 0.00 | 0.00 | 0.00 | 81 | 1011.8 |
| 20260905125736 | 77 | 146 | 3.0 | 4.0 | 0.00 | 0.00 | 0.00 | 82 | 1014.7 |
| 20260905125307 | 77 | 146 | 2.0 | 4.0 | 0.00 | 0.00 | 0.00 | 82 | 1014.6 |
| 20260905124731 | 77 | 146 | 2.0 | 5.0 | 0.00 | 0.00 | 0.00 | 81 | 1014.5 |
| 20260905124534 | 76 | 146 | 2.0 | 5.0 | 0.00 | 0.00 | 0.00 | 81 | 1011.5 |
| 20260905124243 | 77 | 146 | 3.0 | 5.0 | 0.00 | 0.00 | 0.00 | 81 | 1014.3 |
| 20260905123753 | 77 | 146 | 3.0 | 4.0 | 0.00 | 0.00 | 0.00 | 81 | 1014.3 |
| 20260905123241 | 76 | 146 | 2.0 | 4.0 | 0.00 | 0.00 | 0.00 | 81 | 1014.2 |
| 20260905123012 | 76 | 146 | 2.0 | 4.0 | 0.00 | 0.00 | 0.00 | 81 | 1011.3 |
| 20260905122724 | 76 | 146 | 2.0 | 5.0 | 0.00 | 0.00 | 0.00 | 81 | 1014.2 |
| 20260905122235 | 76 | 146 | 3.0 | 5.0 | 0.00 | 0.00 | 0.00 | 81 | 1014.0 |
| 20260905121747 | 76 | 146 | 3.0 | 5.0 | 0.00 | 0.00 | 0.00 | 81 | 1014.0 |
| 20260905121512 | 76 | 146 | 3.0 | 5.0 | 0.00 | 0.00 | 0.00 | 81 | 1011.1 |
| 20260905121229 | 76 | 146 | 4.0 | 4.0 | 0.00 | 0.00 | 0.00 | 81 | 1014.1 |
| 20260905120739 | 76 | 146 | 3.0 | 4.0 | 0.00 | 0.00 | 0.00 | 81 | 1014.1 |
| 20260905120250 | 76 | 146 | 3.0 | 4.0 | 0.00 | 0.00 | 0.00 | 80 | 1014.1 |
| 20260905120056 | 76 | 146 | 2.0 | 3.0 | 0.00 | 0.00 | 0.00 | 80 | 1011.1 |
| 20260905115736 | 76 | 146 | 3.0 | 3.0 | 0.00 | 0.00 | 0.00 | 80 | 1014.0 |
| 20260905115248 | 76 | 146 | 2.0 | 3.0 | 0.00 | 0.00 | 0.00 | 80 | 1014.0 |
| 20260905114730 | 76 | 146 | 2.0 | 5.0 | 0.00 | 0.00 | 0.00 | 80 | 1014.0 |
| 20260905114557 | 76 | 146 | 2.0 | 7.0 | 0.00 | 0.00 | 0.00 | 80 | 1011.2 |
| 20260905114243 | 76 | 146 | 2.0 | 7.0 | 0.00 | 0.00 | 0.00 | 80 | 1014.0 |
| 20260905113723 | 76 | 146 | 2.0 | 5.0 | 0.00 | 0.00 | 0.00 | 79 | 1014.0 |
| 20260905113255 | 77 | 146 | 3.0 | 5.0 | 0.00 | 0.00 | 0.00 | 79 | 1013.9 |
| 20260905113039 | 76 | 146 | 3.0 | 5.0 | 0.00 | 0.00 | 0.00 | 79 | 1010.9 |
| 20260905112746 | 77 | 157 | 3.0 | 5.0 | 0.00 | 0.00 | 0.00 | 79 | 1013.9 |
| 20260905112228 | 77 | 163 | 3.0 | 6.0 | 0.00 | 0.00 | 0.00 | 79 | 1013.8 |
| 20260905111735 | 77 | 169 | 4.0 | 6.0 | 0.00 | 0.00 | 0.00 | 79 | 1013.8 |
| 20260905111614 | 76 | 172 | 3.0 | 5.0 | 0.00 | 0.00 | 0.00 | 79 | 1010.9 |
| 20260905111249 | 77 | 200 | 3.0 | 5.0 | 0.00 | 0.00 | 0.00 | 79 | 1013.9 |
| 20260905110729 | 77 | 200 | 3.0 | 5.0 | 0.00 | 0.00 | 0.00 | 79 | 1013.9 |
| 20260905110241 | 77 | 174 | 4.0 | 6.0 | 0.00 | 0.00 | 0.00 | 79 | 1013.8 |
| 20260905110042 | 76 | 174 | 4.0 | 6.0 | 0.00 | 0.00 | 0.00 | 79 | 1010.9 |
| 20260905105723 | 77 | 198 | 3.0 | 4.0 | 0.00 | 0.00 | 0.00 | 79 | 1013.8 |
| 20260905105235 | 77 | 197 | 3.0 | 5.0 | 0.00 | 0.00 | 0.00 | 79 | 1013.9 |
| 20260905104746 | 77 | 178 | 4.0 | 5.0 | 0.00 | 0.00 | 0.00 | 78 | 1013.8 |
| 20260905104542 | 77 | 196 | 3.0 | 5.0 | 0.00 | 0.00 | 0.00 | 78 | 1010.9 |
| 20260905104230 | 77 | 198 | 4.0 | 6.0 | 0.00 | 0.00 | 0.00 | 78 | 1013.8 |
| 20260905103736 | 77 | 172 | 3.0 | 6.0 | 0.00 | 0.00 | 0.00 | 78 | 1013.7 |
| 20260905103247 | 77 | 204 | 3.0 | 6.0 | 0.00 | 0.00 | 0.00 | 78 | 1013.5 |
| 20260905103044 | 77 | 204 | 3.0 | 7.0 | 0.00 | 0.00 | 0.00 | 78 | 1010.6 |
| 20260905102730 | 77 | 203 | 3.0 | 7.0 | 0.00 | 0.00 | 0.00 | 78 | 1013.4 |
| 20260905102241 | 77 | 206 | 5.0 | 7.0 | 0.00 | 0.00 | 0.00 | 78 | 1013.4 |
| 20260905101723 | 77 | 202 | 3.0 | 5.0 | 0.00 | 0.00 | 0.00 | 78 | 1013.4 |
| 20260905101552 | 77 | 202 | 3.0 | 5.0 | 0.00 | 0.00 | 0.00 | 78 | 1010.5 |
| 20260905101236 | 77 | 202 | 3.0 | 7.0 | 0.00 | 0.00 | 0.00 | 78 | 1013.4 |
| 20260905100747 | 77 | 202 | 3.0 | 7.0 | 0.00 | 0.00 | 0.00 | 78 | 1013.4 |
| 20260905100234 | 78 | 202 | 4.0 | 9.0 | 0.00 | 0.00 | 0.00 | 78 | 1013.3 |
| 20260905100050 | 77 | 198 | 4.0 | 9.0 | 0.00 | 0.00 | 0.00 | 78 | 1010.4 |
| 20260905095746 | 78 | 198 | 5.0 | 9.0 | 0.00 | 0.00 | 0.00 | 78 | 1013.3 |
| 20260905095236 | 78 | 171 | 5.0 | 8.0 | 0.00 | 0.00 | 0.00 | 78 | 1013.2 |
| 20260905094809 | 77 | 199 | 4.0 | 9.0 | 0.00 | 0.00 | 0.00 | 79 | 1013.2 |
| 20260905094511 | 77 | 202 | 4.0 | 9.0 | 0.00 | 0.00 | 0.00 | 79 | 1010.2 |
| 20260905094234 | 78 | 170 | 5.0 | 9.0 | 0.00 | 0.00 | 0.00 | 79 | 1013.2 |
| 20260905093744 | 78 | 173 | 5.0 | 9.0 | 0.00 | 0.00 | 0.00 | 79 | 1013.1 |
| 20260905093234 | 78 | 155 | 6.0 | 9.0 | 0.00 | 0.00 | 0.00 | 79 | 1013.0 |
| 20260905093059 | 77 | 168 | 5.0 | 9.0 | 0.00 | 0.00 | 0.00 | 79 | 1010.1 |
| 20260905092801 | 78 | 167 | 6.0 | 9.0 | 0.00 | 0.00 | 0.00 | 79 | 1013.0 |
| 20260905092225 | 78 | 190 | 6.0 | 8.0 | 0.00 | 0.00 | 0.00 | 79 | 1013.0 |
| 20260905091756 | 78 | 153 | 5.0 | 8.0 | 0.00 | 0.00 | 0.00 | 79 | 1013.1 |
| 20260905091510 | 77 | 145 | 5.0 | 8.0 | 0.00 | 0.00 | 0.00 | 79 | 1010.2 |
| 20260905091247 | 78 | 155 | 5.0 | 8.0 | 0.00 | 0.00 | 0.00 | 79 | 1013.2 |
| 20260905090727 | 78 | 154 | 5.0 | 9.0 | 0.00 | 0.00 | 0.00 | 79 | 1013.2 |
| 20260905090240 | 78 | 170 | 5.0 | 7.0 | 0.00 | 0.00 | 0.00 | 79 | 1013.2 |
| 20260905090017 | 77 | 157 | 4.0 | 7.0 | 0.00 | 0.00 | 0.00 | 79 | 1010.3 |
| 20260905085723 | 78 | 168 | 4.0 | 7.0 | 0.00 | 0.00 | 0.00 | 79 | 1013.3 |
| 20260905085232 | 78 | 166 | 5.0 | 7.0 | 0.00 | 0.00 | 0.00 | 79 | 1013.3 |
| 20260905084743 | 78 | 163 | 5.0 | 7.0 | 0.00 | 0.00 | 0.00 | 79 | 1013.3 |
| 20260905084520 | 77 | 173 | 5.0 | 7.0 | 0.00 | 0.00 | 0.00 | 79 | 1010.4 |
| 20260905084227 | 78 | 160 | 5.0 | 8.0 | 0.00 | 0.00 | 0.00 | 79 | 1013.3 |
| 20260905083737 | 78 | 169 | 5.0 | 8.0 | 0.00 | 0.00 | 0.00 | 79 | 1013.4 |